Regional Weather Roundup
Issued by NWS San Diego, CA

Home | Current Version | Previous Version | Text Only | Print | Product List | Glossary On
Versions: 1 2 3 4 5 6 7 8 9 10 11 12 13 14 15 16 17 18 19 20 21 22 23 24 25 26 27 28 29 30 31 32 33 34 35 36 37 38 39 40 41 42 43 44 45 46 47 48 49 50
000
ASUS46 KSGX 141011
RWRSGX

SAN DIEGO HOURLY WEATHER ROUNDUP
NATIONAL WEATHER SERVICE SAN DIEGO CA
200 AM PST SUN FEB 14 2016

NOTE: "FAIR" INDICATES FEW OR NO CLOUDS BELOW 12,000 FEET WITH NO
SIGNIFICANT WEATHER AND/OR OBSTRUCTIONS TO VISIBILITY.

CAZ042-043-060-061-PZZ750-775-141100-

GREATER SAN DIEGO AREA

CITY           SKY/WX    TMP DP  RH WIND       PRES   REMARKS
LINDBERGH FLD  CLOUDY    55  52  88 NE5       30.07F FOG
POINT LOMA       N/A     55  53  93 NW5         N/A
NATIONAL CITY    N/A     54  51  89 CALM      30.07S
IMPERIAL BEACH CLOUDY    59  55  87 NE3       30.06F FOG
BROWN FIELD    FOG       48  47  96 CALM      30.06F VSB 1/4
MIRAMAR MCAS   FOG       56  51  84 N3        30.06F VSB 1/2
MONTGOMERY FLD FOG       53  53 100 N3        30.07S VSB 1/4

$$

NORTH SAN DIEGO COUNTY

CITY           SKY/WX    TMP DP  RH WIND       PRES   REMARKS
CAMP PENDLETON CLEAR     41  41 100 CALM      30.08R FOG
OCEANSIDE AP   FOG      N/A N/A N/A NE6       30.07R VSB 1/4
OCEANSIDE HBR    N/A     54  52  93 E5        30.09S
VISTA            N/A     46  42  83 CALM      30.06F
CARLSBAD       FOG       53  53 100 CALM      30.06S VSB 1/4
DEL MAR          N/A     54  53  97 CALM      30.09F
ESCONDIDO        N/A     52  42  69 CALM      30.08R
SAN MARCOS       N/A     52  44  73 E2        30.05S
POWAY            N/A     47  42  84 CALM      30.09S

$$

EAST SAN DIEGO COUNTY

CITY           SKY/WX    TMP DP  RH WIND       PRES   REMARKS
RAMONA         CLEAR     43  39  86 CALM      30.07F
SANTEE LAKES     N/A     48  44  86 CALM      30.06F
LA MESA          N/A     54  49  83 CALM      29.98F
JAMUL            N/A     50  44  78 CALM      30.06F
CAMPO            N/A     38  25  59 NE7       30.09S WCI  33

$$

ORANGE COUNTY AND THE LOS ANGELES BASIN

CITY           SKY/WX    TMP DP  RH WIND       PRES   REMARKS
JOHN WAYNE AP  CLEAR     53  50  89 CALM      30.05S FOG
LAGUNA BEACH     N/A     46  44  92 CALM      30.02S
LAKE FOREST FR   N/A     57  35  42 CALM      29.93S
HUNTINGTON BCH   N/A     48  47  97 CALM      30.08S
LOS ALAMITOS   FOG       48  48 100 CALM      30.06S VSB<1/4
FULLERTON        N/A     52  48  86 CALM      30.06R FOG
LONG BEACH     CLEAR     53  50  89 CALM      30.06S FOG
L.A. AP        FOG       51  49  92 NW3       30.06S VSB 1/8
L.A. DOWNTOWN  CLEAR     52  49  89 CALM      30.05S FOG

$$

THE INLAND EMPIRE

CITY           SKY/WX    TMP DP  RH WIND       PRES   REMARKS
CORONA         CLEAR     41  40  96 CALM      30.08R FOG
CHINO          CLEAR     47  42  83 NW3       30.09R HAZE
ONTARIO        CLEAR     51  40  65 CALM      30.07R
RIVERSIDE AP   CLEAR     53  40  61 CALM      30.07S
MARCH ARB      CLEAR     42  35  75 NE1       30.08S
FRENCH VALLEY  FAIR      48  37  66 NE6       30.09R

$$

SAN BERNARDINO AND RIVERSIDE COUNTY MOUNTAINS

CITY           SKY/WX    TMP DP  RH WIND       PRES   REMARKS
BIG BEAR AP    CLEAR     27  19  74 CALM      30.33R
PINE COVE        N/A     50  13  22 CALM      30.08S

$$

SOUTHERN DESERT INCLUDING THE COACHELLA VALLEY

CITY           SKY/WX    TMP DP  RH WIND       PRES   REMARKS
PALM SPRINGS   CLEAR     64  29  26 NW10      30.04R
THOUSAND PALMS   N/A     64  26  23 W2        30.00R
PALM DESERT      N/A     60  36  40 CALM        N/A
THERMAL        CLEAR     60  32  34 N8        29.98S
BLYTHE         CLEAR     60  25  26 N3        30.01S
IMPERIAL AP    CLEAR     56  28  34 CALM      29.98S
EL CENTRO NAS  CLEAR     54  23  30 W9        30.01S
YUMA AZ        MOCLDY    55  35  47 CALM      29.98

$$

UPPER DESERT

CITY           SKY/WX    TMP DP  RH WIND       PRES   REMARKS
VICTORVILLE AP CLEAR     46  30  53 CALM      30.20R
HESPERIA         N/A     43  28  56 CALM      30.32R
APPLE VALLEY     N/A     39  25  58 CALM      30.22R
PALMDALE       CLEAR     44  32  62 S7        30.20S
LANCASTER      CLEAR     43  33  68 N6        30.20R
EDWARDS AFB    CLEAR     38  30  73 S3        30.17S
DAGGETT        CLEAR     51  29  42 W15       30.17R
29 PALMS N     CLEAR     54  20  26 NW8       30.19R
NEEDLES        CLEAR     64  23  21 N10       30.05R

$$

REGIONAL REPORTS

CITY           SKY/WX    TMP DP  RH WIND       PRES   REMARKS
SANTA BARBARA  CLEAR     68  16  13 MISG      30.05F
SANDBERG       CLEAR     49  36  61 N22       30.25F
LAS VEGAS NV   CLEAR     53  21  28 CALM      30.11S
PHOENIX AZ     CLEAR     58  34  40 E6        29.98R
TIJUANA        FOG       54  50  87 CALM      30.09  VSB 1/4
ENSENADA NW      N/A     58  32  37 CALM      30.02F

$$

OFFSHORE ISLANDS

CITY           SKY/WX    TMP DP  RH WIND       PRES   REMARKS
CATALINA ARPT  CLEAR     66  33  29 NW8       30.10S
SAN NICOLAS IS CLEAR    N/A N/A N/A NW18      30.07S

$$

MARINE AND OFFSHORE BUOY REPORTS

STATION/POSITION SKY/WX   TEMP    WIND        PRES    SWELL
                          AIR SEA DIR/SP/G            HT/PER/DIR
                          (F)     (DEG/KT/KT) (MB)    (FT/S/D)
TANNER BANKS               60 60  340/ 14/ 17 1017.9F  11/310/16
S CLEMENTE BASIN           54 61  320/  4/  8 1017.6S   8/290/16
SAN NICOLAS IS.               58                N/A     8/290/15
SO. S. ROSA ISLA           61 59              1017.5R
W. S. BARBARA CH           60 57  330/ 19/ 23 1018.6F  11/300/16
M. S. BARBARA CH           63 60  270/  6/ 10 1018.8S
S. MONICA BASIN            60 60  360/ 10/ 12 1017.9F   5/250/16
S PEDRO CHANNEL               60                N/A     5/270/15
DANA POINT                    61                N/A     3/250/15
OCEANSIDE OFFSHR              61                N/A     5/260/17
TORREY PINES OTR              61                N/A     7/270/15
LA JOLLA 1                 58 61   40/  2/  3 1018.1F
SAN DIEGO BAY                 62              1018.7F
POINT LOMA SOUTH              61                N/A     5/280/15

$$




USA.gov is the U.S. government's official web portal to all federal, state and local government web resources and services.